STARLINK-37561, 69821

Orbit data source: Space-Track

STARLINK-37561, 69821 is a payload satellite owned by SpaceX/Seattle (US) in LEO that was launched on Sun, 05 Jul 2026 UTC via an FALCON 9 launch vehicle from the Air Force Eastern Test Range (AFETR). Payload-class satellites include a variety of spacecraft equipped with specific instruments for various scientific and technological missions. These include communications satellites like Starlink; space stations such as the ISS; scientific satellites like the Hubble; Earth observation satellites from companies like Planet Labs, Umbra, and HawkEye 360; GPS; miniature CubeSats for education and research; and military/defense satellites.

Loading next visibility...
Identifier
69821, 2026-154C
Orbit
LEO
Country
Flag of USUS
Related business
Manufacturer
SpaceX/Seattle
Mission
Operational spacecraft
Bus & Motor
STARLINK V2MO, Unknown motor
Mass
575 kg wet, ~530 kg dry
Launch date (UTC)
2026-07-05 (1 month ago)
Launch vehicle
FALCON 9
Launch site
Air Force Eastern Test Range (AFETR)
Object type
Payload
Rocket body
Debris
Shape & HBR
BOX + PAN, 17.7 m
Radar Cross Section
Large (>1 m²)

Expand to show TLE details & history
Last TLE update: 14 hours ago

TLE from 14 hours ago
0 STARLINK-37561
1 69821U 26154C   26228.46774052  .00016805  00000-0  49151-3 0  9992
2 69821  53.1598 135.2056 0001818  91.7390 268.3821 15.35404253  7861
Epoch: 2026-08-16T11:13Z
TLE epoch observation values (Epoch: 2026-08-16T11:13:32.780Z)
Latitude
-0.00007°
Longitude
1.95513°
Altitude
460.657 km
Speed
7.638 km/s
True Right ascension
09h 00m 49s
True Declination
0° 00' 00"
Sunlit
Object was in daylight at epoch
Visualization orbit readout
Latitude
Unknown
Longitude
Unknown
Altitude
Unknown
Speed
Unknown
Apparent Right ascension
Unknown
Apparent Declination
Unknown
Sunlit
N/A
Visualization observer readout
Local Sidereal Time
16:23:57
Azimuth
Unknown
Elevation
Unknown
Doppler factor
Unknown
Orbital elements
Apogee altitude
461.22 km
Perigee altitude
458.734 km
Semi-major axis
6,838.114 km
Eccentricity
0.00018
Inclination
53.1598°
RAAN
135.2056°
Arg. of periapsis
91.739°
True anomaly
268.36128°
Mean anomaly
268.3821°
Eccentric anomaly
268.37169°
Mean motion
3.8383 °/min
Orbital period
93.79 mins
BSTAR
0.00049151
Loading maneuver chart data...
Computing Atmospheric mass density...
Loading historical data...
Loading historical data...
Loading historical data...
Loading historical data...
Loading historical data...
Loading historical data...
Loading historical data...

Documentation

Showing up to 5 results
|